Welcome to Northern Hawkes Bay. New Zealand.
PWS Header
      nz Flag



Hit Counter


W3C Valid W3C Valid logo


    Wairoa

Select any of the Stations below to visit their websites.










Historic Data from Weather Underground
Select the location of interest below. Wairoa is the default. Please have patience, this Data is slow to load in.
Northern Hawkes Bay Historical Data
Daily Summary for August 28, 2017 Units:  Metric    English   Both
« Previous Day
Next Day »
Daily Weekly Monthly Yearly Custom
  High: Low: Average:
Temperature: 20.3 °C 12.0 °C 15.9 °C
Dew Point: 13.3 °C 7.7 °C 10.7 °C
Humidity: 99% 54% 72%
Wind Speed: 20.9km/h 0.0km/h 7.4km/h
Wind Gust: 40.4km/h - -
Wind- - ENE
Pressure: 1020.2 hPa 1014.4 hPa -
Precipitation: 3.3 mm    
Historical Graphs
 
 
Tabular Data for August 28, 2017
Time Temperature Dew Point Pressure Wind Wind Speed Wind Gust Humidity Rainfall Rate (Hourly) solar
00:01 12.0 °C 7.9 °C 1019.9 hPa NE 3.5 km/h 12.2 km/h 76% 0.0 mm 0 W/m2
00:06 12.0 °C 7.7 °C 1019.9 hPa NE 11.1 km/h 14.8 km/h 75% 0.0 mm 0 W/m2
00:11 12.3 °C 7.8 °C 1020.2 hPa ENE 5.0 km/h 14.8 km/h 74% 0.0 mm 0 W/m2
00:28 12.4 °C 7.7 °C 1019.9 hPa NE 5.0 km/h 14.8 km/h 73% 0.0 mm 0 W/m2
00:33 12.5 °C 7.8 °C 1019.9 hPa NE 5.0 km/h 14.8 km/h 73% 0.0 mm 0 W/m2
00:38 12.5 °C 7.8 °C 1019.9 hPa NE 5.0 km/h 12.2 km/h 73% 0.0 mm 0 W/m2
00:43 12.4 °C 7.9 °C 1019.9 hPa NE 9.7 km/h 14.8 km/h 74% 0.0 mm 0 W/m2
00:48 12.4 °C 7.9 °C 1019.5 hPa Calm   14.8 km/h 74% 0.0 mm 0 W/m2
00:53 12.3 °C 7.8 °C 1019.5 hPa NE 8.7 km/h 14.8 km/h 74% 0.0 mm 0 W/m2
00:58 12.4 °C 7.9 °C 1019.5 hPa NE 7.2 km/h 13.4 km/h 74% 0.0 mm 0 W/m2
01:03 12.3 °C 7.8 °C 1019.5 hPa NE 8.7 km/h 13.4 km/h 74% 0.0 mm 0 W/m2
01:08 12.2 °C 7.9 °C 1019.5 hPa NE 7.2 km/h 13.4 km/h 75% 0.0 mm 0 W/m2
01:13 12.2 °C 7.9 °C 1019.5 hPa NE 7.2 km/h 11.1 km/h 75% 0.0 mm 0 W/m2
01:18 12.1 °C 7.8 °C 1019.5 hPa NE 6.1 km/h 12.2 km/h 75% 0.0 mm 0 W/m2
01:23 12.2 °C 7.9 °C 1019.2 hPa NE 7.2 km/h 12.2 km/h 75% 0.0 mm 0 W/m2
01:28 12.3 °C 7.8 °C 1019.2 hPa NE 7.2 km/h 12.2 km/h 74% 0.0 mm 0 W/m2
01:33 12.3 °C 7.8 °C 1019.2 hPa NE 8.7 km/h 15.8 km/h 74% 0.0 mm 0 W/m2
01:38 12.2 °C 7.9 °C 1018.8 hPa NE 12.2 km/h 15.8 km/h 75% 0.0 mm 0 W/m2
01:43 12.2 °C 7.9 °C 1019.2 hPa NE 8.7 km/h 14.8 km/h 75% 0.0 mm 0 W/m2
01:48 12.0 °C 7.9 °C 1018.8 hPa NE 11.1 km/h 14.8 km/h 76% 0.0 mm 0 W/m2
01:54 12.0 °C 8.1 °C 1018.8 hPa ENE 8.7 km/h 17.2 km/h 77% 0.0 mm 0 W/m2
01:59 12.2 °C 8.1 °C 1018.8 hPa ENE 9.7 km/h 17.2 km/h 76% 0.0 mm 0 W/m2
02:04 12.4 °C 8.1 °C 1018.8 hPa NE 8.7 km/h 15.8 km/h 75% 0.0 mm 0 W/m2
02:09 12.5 °C 8.0 °C 1018.5 hPa ENE 9.7 km/h 17.2 km/h 74% 0.0 mm 0 W/m2
02:14 12.6 °C 8.1 °C 1018.5 hPa ENE 9.7 km/h 17.2 km/h 74% 0.0 mm 0 W/m2
02:19 12.5 °C 8.0 °C 1018.2 hPa NE 12.2 km/h 15.8 km/h 74% 0.0 mm 0 W/m2
02:24 12.6 °C 8.3 °C 1018.2 hPa NE 11.1 km/h 19.5 km/h 75% 0.0 mm 0 W/m2
02:29 12.7 °C 8.4 °C 1018.2 hPa NE 8.7 km/h 19.5 km/h 75% 0.0 mm 0 W/m2
02:34 12.9 °C 8.4 °C 1018.2 hPa NE 9.7 km/h 20.9 km/h 74% 0.0 mm 0 W/m2
02:39 12.9 °C 8.4 °C 1018.2 hPa NE 3.5 km/h 20.9 km/h 74% 0.0 mm 0 W/m2
02:44 12.9 °C 8.4 °C 1018.2 hPa NE 5.0 km/h 13.4 km/h 74% 0.0 mm 0 W/m2
02:49 12.9 °C 8.4 °C 1018.2 hPa NE 3.5 km/h 11.1 km/h 74% 0.0 mm 0 W/m2
02:54 12.9 °C 8.4 °C 1018.2 hPa Calm   8.7 km/h 74% 0.0 mm 0 W/m2
02:59 12.8 °C 8.3 °C 1018.2 hPa Calm   8.7 km/h 74% 0.0 mm 0 W/m2
03:04 12.7 °C 8.4 °C 1018.2 hPa NNE 1.1 km/h 3.5 km/h 75% 0.0 mm 0 W/m2
03:09 12.6 °C 8.3 °C 1018.2 hPa NE 1.1 km/h 3.5 km/h 75% 0.0 mm 0 W/m2
03:14 12.5 °C 8.4 °C 1018.2 hPa ENE 3.5 km/h 7.2 km/h 76% 0.0 mm 0 W/m2
03:19 12.6 °C 8.5 °C 1018.2 hPa ENE 2.6 km/h 7.2 km/h 76% 0.0 mm 0 W/m2
03:24 12.5 °C 8.4 °C 1017.8 hPa ENE 2.6 km/h 6.1 km/h 76% 0.0 mm 0 W/m2
03:30 12.4 °C 8.3 °C 1017.8 hPa ENE 3.5 km/h 5.0 km/h 76% 0.0 mm 0 W/m2
03:35 12.4 °C 8.5 °C 1017.5 hPa East 3.5 km/h 5.0 km/h 77% 0.0 mm 0 W/m2
03:40 12.4 °C 8.5 °C 1017.8 hPa East 2.6 km/h 5.0 km/h 77% 0.0 mm 0 W/m2
03:45 12.3 °C 8.4 °C 1017.8 hPa East 3.5 km/h 6.1 km/h 77% 0.0 mm 0 W/m2
03:50 12.3 °C 8.4 °C 1017.5 hPa East 3.5 km/h 9.7 km/h 77% 0.0 mm 0 W/m2
03:55 12.4 °C 8.5 °C 1017.8 hPa ENE 6.1 km/h 9.7 km/h 77% 0.0 mm 0 W/m2
04:00 12.5 °C 8.6 °C 1017.5 hPa NE 7.2 km/h 11.1 km/h 77% 0.0 mm 0 W/m2
04:05 12.6 °C 8.5 °C 1017.2 hPa ENE 9.7 km/h 13.4 km/h 76% 0.0 mm 0 W/m2
04:10 12.9 °C 8.6 °C 1017.2 hPa ENE 8.7 km/h 14.8 km/h 75% 0.0 mm 0 W/m2
04:15 12.9 °C 8.6 °C 1017.2 hPa ENE 9.7 km/h 17.2 km/h 75% 0.0 mm 0 W/m2
04:20 13.0 °C 8.7 °C 1016.8 hPa East 13.4 km/h 18.3 km/h 75% 0.0 mm 0 W/m2
04:25 12.9 °C 8.6 °C 1016.8 hPa East 8.7 km/h 18.3 km/h 75% 0.0 mm 0 W/m2
04:30 12.9 °C 8.6 °C 1016.5 hPa ENE 8.7 km/h 17.2 km/h 75% 0.0 mm 0 W/m2
04:35 13.1 °C 8.9 °C 1016.8 hPa ENE 6.1 km/h 17.2 km/h 76% 0.0 mm 0 W/m2
04:40 13.0 °C 8.9 °C 1016.8 hPa ENE 3.5 km/h 14.8 km/h 76% 0.0 mm 0 W/m2
04:45 12.9 °C 8.8 °C 1016.8 hPa ENE 5.0 km/h 11.1 km/h 76% 0.0 mm 0 W/m2
04:50 12.7 °C 8.6 °C 1016.8 hPa East 2.6 km/h 7.2 km/h 76% 0.0 mm 0 W/m2
04:55 12.7 °C 8.6 °C 1016.5 hPa Calm   8.7 km/h 76% 0.0 mm 0 W/m2
05:00 12.9 °C 8.8 °C 1016.8 hPa East 1.1 km/h 9.7 km/h 76% 0.0 mm 0 W/m2
05:05 13.1 °C 8.8 °C 1016.8 hPa Calm   9.7 km/h 75% 0.0 mm 0 W/m2
05:10 12.9 °C 8.4 °C 1016.5 hPa ENE 9.7 km/h 14.8 km/h 74% 0.0 mm 0 W/m2
05:16 13.5 °C 8.3 °C 1016.5 hPa NE 2.6 km/h 14.8 km/h 71% 0.0 mm 0 W/m2
05:21 13.6 °C 8.2 °C 1016.5 hPa NE 13.4 km/h 17.2 km/h 70% 0.0 mm 0 W/m2
05:26 14.0 °C 8.0 °C 1016.5 hPa NE 5.0 km/h 17.2 km/h 67% 0.0 mm 0 W/m2
05:32 14.0 °C 8.0 °C 1016.5 hPa NE 8.7 km/h 17.2 km/h 67% 0.0 mm 0 W/m2
05:37 14.3 °C 8.1 °C 1016.5 hPa NE 17.2 km/h 23.3 km/h 66% 0.0 mm 0 W/m2
05:42 14.5 °C 8.0 °C 1016.1 hPa NE 20.9 km/h 30.6 km/h 65% 0.0 mm 0 W/m2
05:47 14.5 °C 8.0 °C 1016.5 hPa NE 14.8 km/h 30.6 km/h 65% 0.0 mm 0 W/m2
05:52 14.5 °C 8.0 °C 1016.5 hPa NE 9.7 km/h 30.6 km/h 65% 0.0 mm 0 W/m2
05:57 14.4 °C 7.9 °C 1016.5 hPa NE 9.7 km/h 23.3 km/h 65% 0.0 mm 0 W/m2
06:02 14.4 °C 7.9 °C 1016.1 hPa NE 15.8 km/h 25.6 km/h 65% 0.0 mm 0 W/m2
06:07 14.5 °C 8.0 °C 1016.5 hPa NE 13.4 km/h 25.6 km/h 65% 0.0 mm 0 W/m2
06:12 14.3 °C 7.8 °C 1016.5 hPa ENE 9.7 km/h 25.6 km/h 65% 0.0 mm 0 W/m2
06:17 14.2 °C 7.9 °C 1016.5 hPa NE 13.4 km/h 23.3 km/h 66% 0.0 mm 0 W/m2
06:22 14.3 °C 8.1 °C 1016.5 hPa NE 6.1 km/h 28.0 km/h 66% 0.0 mm 0 W/m2
06:27 14.1 °C 7.8 °C 1016.8 hPa NE 8.7 km/h 28.0 km/h 66% 0.0 mm 0 W/m2
06:32 14.1 °C 7.8 °C 1016.5 hPa NE 8.7 km/h 19.5 km/h 66% 0.0 mm 0 W/m2
06:37 14.0 °C 7.8 °C 1016.5 hPa NE 12.2 km/h 25.6 km/h 66% 0.0 mm 0 W/m2
06:42 14.1 °C 7.8 °C 1016.8 hPa NE 7.2 km/h 25.6 km/h 66% 0.0 mm 0 W/m2
06:47 14.0 °C 8.0 °C 1016.5 hPa NE 9.7 km/h 24.5 km/h 67% 0.0 mm 0 W/m2
06:52 14.2 °C 7.9 °C 1016.5 hPa NE 9.7 km/h 25.6 km/h 66% 0.0 mm 2 W/m2
06:57 14.3 °C 8.1 °C 1016.8 hPa NE 8.7 km/h 25.6 km/h 66% 0.0 mm 3 W/m2
07:02 14.5 °C 8.0 °C 1016.8 hPa ENE 9.7 km/h 21.9 km/h 65% 0.0 mm 6 W/m2
07:07 14.6 °C 8.1 °C 1016.8 hPa NNE 9.7 km/h 28.0 km/h 65% 0.0 mm 11 W/m2
07:12 14.7 °C 8.2 °C 1016.8 hPa North 9.7 km/h 28.0 km/h 65% 0.0 mm 17 W/m2
07:17 14.8 °C 8.3 °C 1016.8 hPa NNE 14.8 km/h 27.0 km/h 65% 0.0 mm 26 W/m2
07:22 15.0 °C 8.0 °C 1016.8 hPa NE 7.2 km/h 25.6 km/h 63% 0.0 mm 38 W/m2
07:27 15.1 °C 8.1 °C 1016.8 hPa NE 8.7 km/h 19.5 km/h 63% 0.0 mm 89 W/m2
07:32 15.7 °C 8.7 °C 1016.8 hPa NNE 14.8 km/h 29.4 km/h 63% 0.0 mm 143 W/m2
07:37 16.1 °C 8.3 °C 1016.8 hPa NE 11.1 km/h 29.4 km/h 60% 0.0 mm 149 W/m2
07:42 16.2 °C 8.2 °C 1016.8 hPa NE 8.7 km/h 28.0 km/h 59% 0.0 mm 125 W/m2
07:47 16.4 °C 8.4 °C 1016.8 hPa NNE 12.2 km/h 28.0 km/h 59% 0.0 mm 158 W/m2
07:52 16.2 °C 8.4 °C 1016.8 hPa NE 15.8 km/h 27.0 km/h 60% 0.0 mm 58 W/m2
07:57 15.9 °C 8.6 °C 1017.2 hPa NE 9.7 km/h 24.5 km/h 62% 0.0 mm 58 W/m2
08:02 15.7 °C 8.7 °C 1017.2 hPa NE 12.2 km/h 24.5 km/h 63% 0.0 mm 62 W/m2
08:07 15.8 °C 8.8 °C 1017.2 hPa NE 20.9 km/h 31.7 km/h 63% 0.0 mm 65 W/m2
08:12 15.8 °C 8.8 °C 1016.8 hPa ENE 14.8 km/h 31.7 km/h 63% 0.0 mm 69 W/m2
08:17 15.8 °C 8.8 °C 1017.2 hPa NE 5.0 km/h 31.7 km/h 63% 0.0 mm 77 W/m2
08:22 15.9 °C 8.9 °C 1016.8 hPa NNE 13.4 km/h 27.0 km/h 63% 0.0 mm 87 W/m2
08:27 15.9 °C 8.9 °C 1016.8 hPa NNE 12.2 km/h 24.5 km/h 63% 0.0 mm 95 W/m2
08:32 16.0 °C 8.7 °C 1017.2 hPa NNE 3.5 km/h 24.5 km/h 62% 0.0 mm 101 W/m2
08:37 16.1 °C 8.8 °C 1016.8 hPa NNE 5.0 km/h 23.3 km/h 62% 0.0 mm 104 W/m2
08:42 16.2 °C 8.9 °C 1016.8 hPa NE 11.1 km/h 27.0 km/h 62% 0.0 mm 119 W/m2
08:47 16.3 °C 8.8 °C 1016.8 hPa NE 14.8 km/h 28.0 km/h 61% 0.0 mm 144 W/m2
08:52 16.6 °C 9.1 °C 1016.8 hPa NE 7.2 km/h 28.0 km/h 61% 0.0 mm 209 W/m2
08:57 16.8 °C 9.0 °C 1016.8 hPa NE 8.7 km/h 21.9 km/h 60% 0.0 mm 169 W/m2
09:02 16.9 °C 9.1 °C 1016.8 hPa NE 6.1 km/h 20.9 km/h 60% 0.0 mm 299 W/m2
09:07 17.9 °C 9.6 °C 1016.8 hPa NNE 6.1 km/h 20.9 km/h 58% 0.0 mm 349 W/m2
09:12 18.6 °C 9.9 °C 1017.2 hPa NNE 14.8 km/h 27.0 km/h 57% 0.0 mm 343 W/m2
09:17 18.9 °C 10.2 °C 1017.2 hPa NNE 7.2 km/h 27.0 km/h 57% 0.0 mm 333 W/m2
09:22 19.0 °C 9.5 °C 1017.2 hPa NE 9.7 km/h 27.0 km/h 54% 0.0 mm 326 W/m2
09:27 19.0 °C 9.8 °C 1016.8 hPa NNE 6.1 km/h 18.3 km/h 55% 0.0 mm 319 W/m2
09:33 19.1 °C 9.6 °C 1016.8 hPa NE 14.8 km/h 29.4 km/h 54% 0.0 mm 312 W/m2
09:53 19.2 °C 9.9 °C 1016.8 hPa NNE 17.2 km/h 39.3 km/h 55% 0.0 mm 71 W/m2
09:58 18.9 °C 9.9 °C 1016.8 hPa North 11.1 km/h 39.3 km/h 56% 0.0 mm 69 W/m2
10:03 19.2 °C 9.9 °C 1016.8 hPa North 17.2 km/h 33.1 km/h 55% 0.0 mm 70 W/m2
10:08 19.2 °C 9.9 °C 1017.2 hPa North 15.8 km/h 31.7 km/h 55% 0.0 mm 74 W/m2
10:13 19.4 °C 10.1 °C 1017.2 hPa North 17.2 km/h 33.1 km/h 55% 0.0 mm 74 W/m2
10:18 19.2 °C 9.9 °C 1017.2 hPa NNE 15.8 km/h 34.3 km/h 55% 0.0 mm 78 W/m2
10:23 19.3 °C 10.1 °C 1017.2 hPa NE 17.2 km/h 34.3 km/h 55% 0.0 mm 77 W/m2
10:28 19.3 °C 10.1 °C 1017.2 hPa NNE 14.8 km/h 34.3 km/h 55% 0.0 mm 90 W/m2
10:33 19.2 °C 10.2 °C 1017.2 hPa NNE 13.4 km/h 37.8 km/h 56% 0.0 mm 98 W/m2
10:38 19.5 °C 10.5 °C 1017.2 hPa NNE 18.3 km/h 37.8 km/h 56% 0.0 mm 220 W/m2
10:43 19.7 °C 10.7 °C 1017.2 hPa North 15.8 km/h 34.3 km/h 56% 0.0 mm 314 W/m2
11:02 18.7 °C 10.6 °C 1016.8 hPa NE 12.2 km/h 23.3 km/h 59% 0.0 mm 137 W/m2
11:07 18.5 °C 10.6 °C 1016.8 hPa NNE 17.2 km/h 24.5 km/h 60% 0.0 mm 190 W/m2
11:12 18.7 °C 10.8 °C 1016.8 hPa NE 15.8 km/h 28.0 km/h 60% 0.0 mm 435 W/m2
11:17 19.4 °C 10.9 °C 1016.5 hPa NNE 14.8 km/h 28.0 km/h 58% 0.0 mm 460 W/m2
11:22 20.0 °C 11.2 °C 1016.5 hPa NNE 13.4 km/h 24.5 km/h 57% 0.0 mm 489 W/m2
11:27 19.9 °C 10.9 °C 1016.5 hPa NNE 11.1 km/h 29.4 km/h 56% 0.0 mm 470 W/m2
11:32 20.2 °C 10.9 °C 1016.8 hPa NNE 12.2 km/h 30.6 km/h 55% 0.0 mm 390 W/m2
11:37 20.3 °C 11.0 °C 1016.8 hPa NNE 14.8 km/h 30.6 km/h 55% 0.0 mm 526 W/m2
11:42 20.3 °C 11.0 °C 1016.5 hPa NNE 19.5 km/h 29.4 km/h 55% 0.0 mm 413 W/m2
11:47 20.2 °C 11.2 °C 1016.5 hPa NNE 6.1 km/h 29.4 km/h 56% 0.0 mm 264 W/m2
11:52 19.8 °C 11.1 °C 1016.5 hPa NNE 14.8 km/h 34.3 km/h 57% 0.0 mm 334 W/m2
11:57 19.5 °C 11.1 °C 1016.5 hPa North 12.2 km/h 34.3 km/h 58% 0.0 mm 187 W/m2
12:02 19.3 °C 11.1 °C 1016.5 hPa North 11.1 km/h 28.0 km/h 59% 0.0 mm 145 W/m2
12:07 19.2 °C 11.3 °C 1016.5 hPa NE 11.1 km/h 24.5 km/h 60% 0.0 mm 194 W/m2
12:12 19.1 °C 11.2 °C 1016.5 hPa NE 19.5 km/h 27.0 km/h 60% 0.0 mm 157 W/m2
12:17 19.1 °C 11.4 °C 1016.5 hPa NNE 8.7 km/h 27.0 km/h 61% 0.0 mm 147 W/m2
12:22 19.0 °C 11.1 °C 1016.5 hPa North 14.8 km/h 36.7 km/h 60% 0.0 mm 133 W/m2
12:27 18.9 °C 11.4 °C 1016.5 hPa North 14.8 km/h 36.7 km/h 62% 0.0 mm 119 W/m2
12:32 18.9 °C 11.4 °C 1016.1 hPa North 15.8 km/h 25.6 km/h 62% 0.0 mm 122 W/m2
12:37 18.9 °C 11.4 °C 1016.1 hPa North 11.1 km/h 28.0 km/h 62% 0.0 mm 130 W/m2
12:42 18.9 °C 11.7 °C 1015.8 hPa North 12.2 km/h 31.7 km/h 63% 0.0 mm 151 W/m2
12:47 19.0 °C 11.6 °C 1016.1 hPa North 14.8 km/h 31.7 km/h 62% 0.0 mm 141 W/m2
12:52 19.0 °C 11.6 °C 1015.8 hPa North 11.1 km/h 29.4 km/h 62% 0.0 mm 145 W/m2
12:57 19.1 °C 11.7 °C 1015.8 hPa NNE 14.8 km/h 29.4 km/h 62% 0.0 mm 144 W/m2
13:02 19.2 °C 12.0 °C 1015.8 hPa NNE 13.4 km/h 29.4 km/h 63% 0.0 mm 131 W/m2
13:07 19.0 °C 11.6 °C 1015.8 hPa NNE 12.2 km/h 31.7 km/h 62% 0.0 mm 109 W/m2
13:12 18.8 °C 11.6 °C 1015.5 hPa NNE 12.2 km/h 40.4 km/h 63% 0.0 mm 118 W/m2
13:17 18.8 °C 11.8 °C 1015.8 hPa NNE 13.4 km/h 40.4 km/h 64% 0.0 mm 122 W/m2
13:18 18.8 °C 11.8 °C 1015.8 hPa NNE 14.8 km/h 40.4 km/h 64% 0.0 mm 128 W/m2
13:23 18.9 °C 12.2 °C 1015.5 hPa NNE 7.2 km/h 29.4 km/h 65% 0.0 mm 136 W/m2
13:28 19.0 °C 12.1 °C 1015.5 hPa NNE 8.7 km/h 28.0 km/h 64% 0.0 mm 170 W/m2
13:34 19.2 °C 12.2 °C 1015.5 hPa NNE 12.2 km/h 28.0 km/h 64% 0.0 mm 207 W/m2
13:39 19.3 °C 12.3 °C 1015.1 hPa NNE 8.7 km/h 28.0 km/h 64% 0.0 mm 195 W/m2
13:44 19.3 °C 12.1 °C 1015.5 hPa NNE 7.2 km/h 28.0 km/h 63% 0.0 mm 184 W/m2
13:49 19.2 °C 12.0 °C 1015.1 hPa NE 17.2 km/h 35.6 km/h 63% 0.0 mm 192 W/m2
13:54 19.1 °C 12.2 °C 1015.1 hPa NE 14.8 km/h 35.6 km/h 64% 0.0 mm 195 W/m2
13:59 19.1 °C 12.2 °C 1015.1 hPa NE 7.2 km/h 24.5 km/h 64% 0.0 mm 188 W/m2
14:04 19.1 °C 12.2 °C 1015.1 hPa NNE 9.7 km/h 23.3 km/h 64% 0.0 mm 175 W/m2
14:09 19.1 °C 12.2 °C 1015.1 hPa NNE 12.2 km/h 34.3 km/h 64% 0.0 mm 163 W/m2
14:14 19.0 °C 12.1 °C 1015.1 hPa NNE 13.4 km/h 34.3 km/h 64% 0.0 mm 159 W/m2
14:19 19.0 °C 12.1 °C 1015.5 hPa NE 12.2 km/h 34.3 km/h 64% 0.0 mm 222 W/m2
14:24 19.5 °C 12.5 °C 1015.1 hPa NE 14.8 km/h 30.6 km/h 64% 0.0 mm 227 W/m2
14:29 19.6 °C 12.4 °C 1015.1 hPa NNE 7.2 km/h 28.0 km/h 63% 0.0 mm 209 W/m2
14:34 19.6 °C 12.4 °C 1015.1 hPa NE 8.7 km/h 28.0 km/h 63% 0.0 mm 193 W/m2
14:39 19.7 °C 12.4 °C 1015.1 hPa ENE 11.1 km/h 24.5 km/h 63% 0.0 mm 206 W/m2
14:44 19.8 °C 12.3 °C 1015.1 hPa NE 11.1 km/h 21.9 km/h 62% 0.0 mm 249 W/m2
14:49 19.7 °C 12.2 °C 1015.1 hPa NE 8.7 km/h 28.0 km/h 62% 0.0 mm 222 W/m2
14:54 19.7 °C 12.4 °C 1015.1 hPa NNE 12.2 km/h 29.4 km/h 63% 0.0 mm 200 W/m2
14:59 19.8 °C 12.6 °C 1015.1 hPa NNE 8.7 km/h 29.4 km/h 63% 0.0 mm 173 W/m2
15:04 19.5 °C 12.5 °C 1015.1 hPa NE 12.2 km/h 25.6 km/h 64% 0.0 mm 141 W/m2
15:09 19.3 °C 12.3 °C 1015.1 hPa NE 11.1 km/h 25.6 km/h 64% 0.0 mm 141 W/m2
15:14 19.1 °C 12.4 °C 1015.1 hPa NNE 15.8 km/h 28.0 km/h 65% 0.0 mm 134 W/m2
15:19 19.0 °C 12.3 °C 1015.1 hPa NNE 7.2 km/h 28.0 km/h 65% 0.0 mm 166 W/m2
15:24 19.1 °C 12.4 °C 1015.1 hPa NNE 12.2 km/h 25.6 km/h 65% 0.0 mm 181 W/m2
15:29 19.2 °C 12.5 °C 1015.1 hPa NE 7.2 km/h 23.3 km/h 65% 0.0 mm 149 W/m2
15:34 19.0 °C 12.7 °C 1015.5 hPa NE 7.2 km/h 20.9 km/h 67% 0.0 mm 128 W/m2
15:39 18.8 °C 12.8 °C 1015.5 hPa North 11.1 km/h 20.9 km/h 68% 0.0 mm 124 W/m2
15:44 18.6 °C 12.8 °C 1015.1 hPa NNE 11.1 km/h 19.5 km/h 69% 0.0 mm 81 W/m2
15:49 18.4 °C 12.6 °C 1015.1 hPa NE 7.2 km/h 19.5 km/h 69% 0.0 mm 71 W/m2
15:54 18.3 °C 12.7 °C 1015.5 hPa NE 9.7 km/h 19.5 km/h 70% 0.0 mm 69 W/m2
15:59 18.2 °C 12.7 °C 1015.1 hPa NE 7.2 km/h 19.5 km/h 70% 0.0 mm 72 W/m2
16:04 18.2 °C 12.7 °C 1015.1 hPa NE 5.0 km/h 19.5 km/h 70% 0.0 mm 73 W/m2
16:09 18.3 °C 12.7 °C 1015.1 hPa NNE 9.7 km/h 23.3 km/h 70% 0.0 mm 62 W/m2
16:14 18.3 °C 12.7 °C 1015.1 hPa NNE 12.2 km/h 23.3 km/h 70% 0.0 mm 72 W/m2
16:19 18.3 °C 12.7 °C 1015.1 hPa NE 9.7 km/h 18.3 km/h 70% 0.0 mm 59 W/m2
16:24 18.3 °C 12.7 °C 1015.1 hPa NNE 6.1 km/h 18.3 km/h 70% 0.0 mm 58 W/m2
16:29 18.3 °C 12.7 °C 1014.8 hPa NNE 7.2 km/h 19.5 km/h 70% 0.0 mm 58 W/m2
16:34 18.3 °C 12.7 °C 1014.8 hPa NNE 6.1 km/h 20.9 km/h 70% 0.0 mm 75 W/m2
16:39 18.3 °C 12.7 °C 1014.8 hPa NNE 3.5 km/h 20.9 km/h 70% 0.0 mm 73 W/m2
16:44 18.4 °C 12.8 °C 1015.1 hPa North 3.5 km/h 17.2 km/h 70% 0.0 mm 61 W/m2
16:49 18.3 °C 12.7 °C 1015.5 hPa NNE 7.2 km/h 13.4 km/h 70% 0.0 mm 61 W/m2
16:54 18.4 °C 12.8 °C 1015.5 hPa NE 3.5 km/h 12.2 km/h 70% 0.0 mm 61 W/m2
17:10 18.1 °C 12.6 °C 1015.5 hPa NE 5.0 km/h 14.8 km/h 70% 0.0 mm 16 W/m2
17:15 18.0 °C 12.4 °C 1015.5 hPa NE 3.5 km/h 14.8 km/h 70% 0.0 mm 11 W/m2
17:20 17.9 °C 12.6 °C 1015.5 hPa NE 2.6 km/h 11.1 km/h 71% 0.0 mm 10 W/m2
17:25 17.8 °C 12.5 °C 1015.5 hPa NE 2.6 km/h 11.1 km/h 71% 0.0 mm 5 W/m2
17:30 17.7 °C 12.4 °C 1015.5 hPa NE 3.5 km/h 12.2 km/h 71% 0.0 mm 2 W/m2
17:36 17.7 °C 12.4 °C 1015.5 hPa ENE 1.1 km/h 13.4 km/h 71% 0.0 mm 0 W/m2
17:37 17.7 °C 12.4 °C 1015.5 hPa ENE 3.5 km/h 13.4 km/h 71% 0.0 mm 0 W/m2
17:42 17.6 °C 12.5 °C 1015.5 hPa ENE 3.5 km/h 13.4 km/h 72% 0.0 mm 0 W/m2
17:47 17.6 °C 12.5 °C 1015.5 hPa ENE 5.0 km/h 12.2 km/h 72% 0.0 mm 0 W/m2
17:52 17.5 °C 12.4 °C 1015.5 hPa ENE 6.1 km/h 12.2 km/h 72% 0.0 mm 0 W/m2
17:57 17.5 °C 12.4 °C 1015.5 hPa NE 2.6 km/h 9.7 km/h 72% 0.0 mm 0 W/m2
18:02 17.4 °C 12.3 °C 1015.5 hPa NE 5.0 km/h 9.7 km/h 72% 0.0 mm 0 W/m2
18:07 17.3 °C 12.4 °C 1015.5 hPa NE 6.1 km/h 8.7 km/h 73% 0.0 mm 0 W/m2
18:12 17.3 °C 12.4 °C 1015.8 hPa NE 3.5 km/h 11.1 km/h 73% 0.0 mm 0 W/m2
18:17 17.3 °C 12.4 °C 1015.8 hPa NE 7.2 km/h 11.1 km/h 73% 0.0 mm 0 W/m2
18:22 17.3 °C 12.6 °C 1015.8 hPa Calm   11.1 km/h 74% 0.0 mm 0 W/m2
18:27 17.1 °C 12.4 °C 1015.8 hPa NE 2.6 km/h 11.1 km/h 74% 0.0 mm 0 W/m2
18:32 17.0 °C 12.6 °C 1015.8 hPa NNE 5.0 km/h 7.2 km/h 75% 0.0 mm 0 W/m2
18:37 16.9 °C 12.7 °C 1015.8 hPa NNE 3.5 km/h 11.1 km/h 76% 0.0 mm 0 W/m2
18:42 16.9 °C 12.7 °C 1015.5 hPa NNE 3.5 km/h 11.1 km/h 76% 0.0 mm 0 W/m2
18:47 16.7 °C 12.7 °C 1015.8 hPa NNE 2.6 km/h 7.2 km/h 77% 0.0 mm 0 W/m2
18:52 16.7 °C 12.7 °C 1016.1 hPa NNE 5.0 km/h 12.2 km/h 77% 0.0 mm 0 W/m2
18:58 16.6 °C 12.8 °C 1016.1 hPa NE 3.5 km/h 12.2 km/h 78% 0.0 mm 0 W/m2
19:03 16.5 °C 12.8 °C 1016.1 hPa NNE 6.1 km/h 13.4 km/h 79% 0.0 mm 0 W/m2
19:08 16.4 °C 12.9 °C 1016.1 hPa NNE 5.0 km/h 15.8 km/h 80% 0.0 mm 0 W/m2
19:13 16.3 °C 13.1 °C 1016.1 hPa NE 7.2 km/h 15.8 km/h 81% 0.3 mm 0 W/m2
19:19 15.9 °C 13.0 °C 1016.1 hPa NNE 1.1 km/h 11.1 km/h 83% 0.3 mm 0 W/m2
19:24 15.8 °C 13.1 °C 1016.1 hPa NNE 3.5 km/h 8.7 km/h 84% 0.3 mm 0 W/m2
19:29 15.6 °C 13.1 °C 1016.1 hPa Calm   6.1 km/h 85% 0.3 mm 0 W/m2
19:34 15.5 °C 13.0 °C 1016.1 hPa ENE 2.6 km/h 6.1 km/h 85% 0.3 mm 0 W/m2
19:39 15.3 °C 13.0 °C 1016.1 hPa East 3.5 km/h 5.0 km/h 86% 0.3 mm 0 W/m2
19:44 15.2 °C 12.9 °C 1016.1 hPa ENE 1.1 km/h 5.0 km/h 86% 0.3 mm 0 W/m2
19:49 15.2 °C 12.9 °C 1016.1 hPa NE 1.1 km/h 5.0 km/h 86% 0.3 mm 0 W/m2
19:54 15.0 °C 12.8 °C 1016.1 hPa NE 2.6 km/h 5.0 km/h 87% 0.3 mm 0 W/m2
19:59 15.0 °C 13.1 °C 1016.1 hPa Calm   5.0 km/h 88% 0.3 mm 0 W/m2
20:04 15.0 °C 13.1 °C 1016.1 hPa ENE 1.1 km/h 5.0 km/h 88% 0.3 mm 0 W/m2
20:09 14.9 °C 13.1 °C 1016.1 hPa Calm   3.5 km/h 89% 0.3 mm 0 W/m2
20:14 14.9 °C 13.1 °C 1016.1 hPa Calm   2.6 km/h 89% 0.0 mm 0 W/m2
20:19 14.8 °C 13.0 °C 1016.1 hPa Calm     89% 0.0 mm 0 W/m2
20:24 14.9 °C 13.1 °C 1015.8 hPa Calm     89% 0.0 mm 0 W/m2
20:29 14.9 °C 13.1 °C 1015.8 hPa Calm     89% 0.0 mm 0 W/m2
20:34 14.9 °C 12.9 °C 1015.8 hPa Calm     88% 0.3 mm 0 W/m2
20:39 14.9 °C 12.9 °C 1016.1 hPa Calm     88% 0.3 mm 0 W/m2
20:44 14.8 °C 12.8 °C 1016.1 hPa Calm     88% 0.3 mm 0 W/m2
20:49 14.7 °C 12.9 °C 1015.8 hPa Calm     89% 0.3 mm 0 W/m2
20:54 14.6 °C 12.8 °C 1016.1 hPa Calm     89% 0.3 mm 0 W/m2
20:59 14.5 °C 12.7 °C 1015.8 hPa Calm     89% 0.3 mm 0 W/m2
21:04 14.4 °C 12.8 °C 1015.8 hPa Calm   2.6 km/h 90% 0.5 mm 0 W/m2
21:09 14.4 °C 12.8 °C 1015.8 hPa ENE 2.6 km/h 3.5 km/h 90% 0.5 mm 0 W/m2
21:14 14.3 °C 12.8 °C 1015.8 hPa Calm   3.5 km/h 91% 0.5 mm 0 W/m2
21:19 14.1 °C 12.8 °C 1015.8 hPa Calm   3.5 km/h 92% 0.5 mm 0 W/m2
21:24 14.1 °C 12.8 °C 1015.5 hPa Calm   1.1 km/h 92% 0.5 mm 0 W/m2
21:29 14.0 °C 12.7 °C 1015.8 hPa Calm   1.1 km/h 92% 0.5 mm 0 W/m2
21:34 14.0 °C 12.9 °C 1015.5 hPa Calm     93% 0.3 mm 0 W/m2
21:39 13.9 °C 12.9 °C 1015.5 hPa Calm   1.1 km/h 94% 0.3 mm 0 W/m2
21:44 14.0 °C 13.1 °C 1015.5 hPa SW 2.6 km/h 5.0 km/h 94% 0.5 mm 0 W/m2
21:49 13.9 °C 13.1 °C 1015.5 hPa SW 1.1 km/h 5.0 km/h 95% 0.5 mm 0 W/m2
21:54 13.7 °C 13.1 °C 1015.5 hPa SW 2.6 km/h 5.0 km/h 96% 0.5 mm 0 W/m2
21:59 13.7 °C 13.1 °C 1015.5 hPa Calm   3.5 km/h 96% 0.5 mm 0 W/m2
22:04 13.7 °C 13.1 °C 1015.1 hPa Calm   3.5 km/h 96% 0.3 mm 0 W/m2
22:09 13.7 °C 13.2 °C 1015.1 hPa South 1.1 km/h 3.5 km/h 97% 0.3 mm 0 W/m2
22:14 13.7 °C 13.2 °C 1015.1 hPa Calm   3.5 km/h 97% 0.3 mm 0 W/m2
22:19 13.6 °C 13.1 °C 1015.1 hPa SSW 2.6 km/h 3.5 km/h 97% 0.5 mm 0 W/m2
22:24 13.6 °C 13.1 °C 1015.1 hPa SSW 1.1 km/h 3.5 km/h 97% 0.5 mm 0 W/m2
22:29 13.5 °C 13.2 °C 1015.1 hPa Calm   3.5 km/h 98% 0.5 mm 0 W/m2
22:34 13.5 °C 13.2 °C 1015.1 hPa Calm   2.6 km/h 98% 0.5 mm 0 W/m2
22:39 13.5 °C 13.2 °C 1014.8 hPa Calm   2.6 km/h 98% 0.5 mm 0 W/m2
22:44 13.5 °C 13.2 °C 1014.8 hPa Calm   2.6 km/h 98% 0.5 mm 0 W/m2
22:49 13.5 °C 13.2 °C 1014.8 hPa NNW 1.1 km/h 3.5 km/h 98% 1.0 mm 0 W/m2
22:54 13.5 °C 13.2 °C 1014.8 hPa NNW 1.1 km/h 3.5 km/h 98% 1.0 mm 0 W/m2
22:59 13.5 °C 13.2 °C 1014.8 hPa Calm   2.6 km/h 98% 1.0 mm 0 W/m2
23:04 13.5 °C 13.2 °C 1014.8 hPa SW 1.1 km/h 2.6 km/h 98% 1.0 mm 0 W/m2
23:09 13.5 °C 13.2 °C 1014.4 hPa SW 1.1 km/h 3.5 km/h 98% 1.0 mm 0 W/m2
23:14 13.4 °C 13.1 °C 1014.8 hPa SW 1.1 km/h 3.5 km/h 98% 1.3 mm 0 W/m2
23:19 13.4 °C 13.1 °C 1014.8 hPa SW 2.6 km/h 3.5 km/h 98% 1.0 mm 0 W/m2
23:24 13.4 °C 13.3 °C 1014.8 hPa Calm   3.5 km/h 99% 1.3 mm 0 W/m2
23:29 13.4 °C 13.3 °C 1014.4 hPa WSW 2.6 km/h 3.5 km/h 99% 1.3 mm 0 W/m2
23:34 13.4 °C 13.3 °C 1014.8 hPa SW 2.6 km/h 3.5 km/h 99% 1.5 mm 0 W/m2
23:53 13.4 °C 13.3 °C 1014.4 hPa Calm   2.6 km/h 99% 1.3 mm 0 W/m2
23:58 13.4 °C 13.3 °C 1014.4 hPa West 1.1 km/h 3.5 km/h 99% 1.3 mm 0 W/m2
Northern Hawkes Bay. New Zealand Historic Data
Compliments of Weather Underground - 2.25 mb